"Pseudo-MPEC" for C5ZRK62

Created 2021 Sep 24 0:07:04 UT using Find_Orb

Click here for an explanation of pseudo-MPECs

 
 Astrometry: 
     C5ZRK62  C2021 09 16.41554402 30 06.52 +14 07 02.9    ~9GBq 22.52GVNEOCPG96
     C5ZRK62  C2021 09 16.42235902 30 01.03 +14 06 58.4    ~9GBq 21.86GVNEOCPG96
     C5ZRK62  C2021 09 16.42802902 29 56.43 +14 06 53.4    ~9GBq 21.51GVNEOCPG96
     C5ZRK62  C2021 09 16.43370702 29 51.86 +14 06 48.7    ~9GBq 21.29GVNEOCPG96
     C5ZRK62 KC2021 09 16.47599602 29 18.10 +14 06 13.6    ~9GC7 21.53GVNEOCPG96
     C5ZRK62 KC2021 09 16.47764302 29 16.78 +14 06 12.2    ~9GC7       VNEOCPG96
     C5ZRK62 KC2021 09 16.47929102 29 15.46 +14 06 10.9    ~9GC7 21.63GVNEOCPG96

Station data:
(G96) Mt. Lemmon Survey  (N32.442754 W110.788720)  US/Arizona.  Observers T.
   A. Pruyne, B. M. Africano, E. J. Christensen, G. A. Farneth, D. C. Fuls,
   A. R. Gibbs, A. D. Grauer, H. Gröller, J. A. Johnson, R. A. Kowalski, S.
   M. Larson, G. J. Leonard, D. Rankin, R. L. Seaman, F. C. Shelly. 1.5-m
   reflector + 10K CCD.

Orbital elements:  C5ZRK62
   Perihelion 2021 Aug 9.731646 +/- 17.0037 TT = 17:33:34 (JD 2459436.231646)
Epoch 2021 Sep 16.0 TT = JDT 2459473.5   Earth MOID: 0.0029   Ma: 0.0324
M  12.80301200 +/- 36.222127        (J2000 ecliptic)          AutoNEOCP
n   0.34353575 +/- 0.619403         Peri.  310.26511 +/- 12.891570
a   2.01908570 +/- 3.90923          Node   356.23183 +/- 1.2712834
e   0.5489304 +/- 0.644667          Incl.    1.39686 +/- 1.0762918
P   2.87                   H 27.1   G  0.15   U 12.4  
q 0.91074805 +/- 0.0792358    Q 3.12742334 +/- 4.3289
From 7 observations 2021 Sept. 16 (91.8 min); mean residual 0".23
Residuals in arcseconds: 
210916 G96  .17-  .28-    210916 G96  .21-  .23-    210916 G96  .35-  .09+    
210916 G96  .09+  .50+    210916 G96  .12+  .07-    
210916 G96  .27-  .04-    210916 G96  .12-  .04-    

Ephemerides (geocentric):
Date (UTC) HH   RA              Dec         delta   r     elong  mag " sig PA
---- -- -- --  -------------   -----------  ------ ------ -----  --- ---- ---
2021 09 24 00  01 44 09.635   +12 56 10.49  .08983 1.0834 152.0 23.2  361  74
2021 09 24 01  01 44 01.951   +12 55 53.25  .09009 1.0836 152.1 23.2  368  74
2021 09 24 02  01 43 54.306   +12 55 36.06  .09036 1.0839 152.1 23.2  375  74
2021 09 24 03  01 43 46.698   +12 55 18.91  .09063 1.0842 152.2 23.2  381  74
2021 09 24 04  01 43 39.129   +12 55 01.79  .09089 1.0845 152.3 23.2  388  74
2021 09 24 05  01 43 31.597   +12 54 44.72  .09116 1.0847 152.4 23.2  395  75
2021 09 24 06  01 43 24.102   +12 54 27.68  .09143 1.0850 152.4 23.3  402  75
2021 09 24 07  01 43 16.644   +12 54 10.69  .09169 1.0853 152.5 23.3  408  75
2021 09 24 08  01 43 09.223   +12 53 53.73  .09196 1.0856 152.6 23.3  415  75
2021 09 24 09  01 43 01.838   +12 53 36.81  .09223 1.0858 152.6 23.3  422  75
2021 09 24 10  01 42 54.488   +12 53 19.92  .09249 1.0861 152.7 23.3  428  75
2021 09 24 11  01 42 47.175   +12 53 03.08  .09276 1.0864 152.8 23.3  435  75
2021 09 24 12  01 42 39.896   +12 52 46.27  .09303 1.0867 152.8 23.3  442  75
2021 09 24 13  01 42 32.653   +12 52 29.50  .09329 1.0870 152.9 23.3  448  75
2021 09 24 14  01 42 25.445   +12 52 12.77  .09356 1.0872 153.0 23.3  455  75
2021 09 24 15  01 42 18.271   +12 51 56.07  .09383 1.0875 153.0 23.3  462  75
2021 09 24 16  01 42 11.131   +12 51 39.41  .09409 1.0878 153.1 23.3  469  75
2021 09 24 17  01 42 04.024   +12 51 22.78  .09436 1.0881 153.2 23.3  475  75
2021 09 24 18  01 41 56.952   +12 51 06.19  .09463 1.0884 153.3 23.3  482  75
2021 09 24 19  01 41 49.913   +12 50 49.64  .09490 1.0886 153.3 23.3  489  75
2021 09 24 20  01 41 42.907   +12 50 33.12  .09516 1.0889 153.4 23.3  495  75
2021 09 24 21  01 41 35.933   +12 50 16.63  .09543 1.0892 153.5 23.3  502  75
2021 09 24 22  01 41 28.992   +12 50 00.18  .09570 1.0895 153.5 23.3  509  75
2021 09 24 23  01 41 22.084   +12 49 43.76  .09597 1.0897 153.6 23.3  515  75
2021 09 25 00  01 41 15.207   +12 49 27.38  .09624 1.0900 153.7 23.3  522  75
2021 09 25 01  01 41 08.362   +12 49 11.03  .09650 1.0903 153.7 23.3  529  76
2021 09 25 02  01 41 01.548   +12 48 54.71  .09677 1.0906 153.8 23.3  535  76
2021 09 25 03  01 40 54.766   +12 48 38.43  .09704 1.0909 153.9 23.3  542  76
2021 09 25 04  01 40 48.015   +12 48 22.18  .09731 1.0911 153.9 23.4  549  76
2021 09 25 05  01 40 41.294   +12 48 05.96  .09758 1.0914 154.0 23.4  555  76
2021 09 25 06  01 40 34.604   +12 47 49.77  .09785 1.0917 154.1 23.4  562  76
2021 09 25 07  01 40 27.944   +12 47 33.62  .09811 1.0920 154.1 23.4  568  76
2021 09 25 08  01 40 21.314   +12 47 17.50  .09838 1.0923 154.2 23.4  575  76
2021 09 25 09  01 40 14.713   +12 47 01.41  .09865 1.0925 154.3 23.4  582  76
2021 09 25 10  01 40 08.142   +12 46 45.35  .09892 1.0928 154.3 23.4  588  76
2021 09 25 11  01 40 01.601   +12 46 29.32  .09919 1.0931 154.4 23.4  595  76
2021 09 25 12  01 39 55.088   +12 46 13.32  .09946 1.0934 154.5 23.4  602  76
2021 09 25 13  01 39 48.604   +12 45 57.35  .09973 1.0937 154.5 23.4  608  76
2021 09 25 14  01 39 42.149   +12 45 41.41  .10000 1.0940 154.6 23.4  615  76
2021 09 25 15  01 39 35.722   +12 45 25.50  .10027 1.0942 154.7 23.4  621  76
2021 09 25 16  01 39 29.324   +12 45 09.63  .10054 1.0945 154.7 23.4  628  76
2021 09 25 17  01 39 22.953   +12 44 53.78  .10080 1.0948 154.8 23.4  635  76
2021 09 25 18  01 39 16.610   +12 44 37.96  .10107 1.0951 154.9 23.4  641  76
2021 09 25 19  01 39 10.294   +12 44 22.17  .10134 1.0954 154.9 23.4  648  76
2021 09 25 20  01 39 04.006   +12 44 06.41  .10161 1.0956 155.0 23.4  654  76
2021 09 25 21  01 38 57.745   +12 43 50.67  .10188 1.0959 155.1 23.4  661  76
2021 09 25 22  01 38 51.510   +12 43 34.97  .10215 1.0962 155.1 23.4  667  76
2021 09 25 23  01 38 45.302   +12 43 19.29  .10242 1.0965 155.2 23.4  674  76